User: anonymous   Login
Location: Unspecified
(0.0000°N, 0.0000°E)
Time: 05:30:19
(UTC+00:00)
Language:

KORONAS-FOTON - Orbit

View from above orbital plane
View from above orbital plane
View from above satellite
View from above satellite

Ground track
Ground track

The orbit data is extracted from the following two-line orbital elements,

1 33504U 09003A   17233.29808358  .00001032  00000-0  53587-4 0  9994
2 33504  82.4447 168.2831 0017875 243.1237 116.8169 15.14880657471330
Epoch (UTC): 21 August 2017 07:09:14
Eccentricity: 0.0017875
inclination: 82.4447°
perigee height: 509 km
apogee height: 533 km
right ascension of ascending node: 168.2831°
argument of perigee: 243.1237°
revolutions per day: 15.14880657
mean anomaly at epoch: 116.8169°
orbit number at epoch: 47133

The dashed part of the orbit path shows where the satellite is in the earth's shadow,  

DLR